User: anonymous   Login
Location: The Jewett Observatory
(46.7288°N, 117.1525°W)
Time: 22:34:21
(UTC-07:00)
Language:

Cosmos 1844 Rocket - Orbit

View from above orbital plane
View from above orbital plane
View from above satellite
View from above satellite

Ground track
Ground track

The orbit data is extracted from the following two-line orbital elements,

1 17974U 87041B   17268.86096647 -.00000129  00000-0 -40076-4 0  9993
2 17974  71.0081  57.7318 0016014 244.1235 268.3805 14.17231874570946
Epoch (UTC): 25 September 2017 20:39:47
Eccentricity: 0.0016014
inclination: 71.0081°
perigee height: 823 km
apogee height: 846 km
right ascension of ascending node: 57.7318°
argument of perigee: 244.1235°
revolutions per day: 14.17231874
mean anomaly at epoch: 268.3805°
orbit number at epoch: 57094

The dashed part of the orbit path shows where the satellite is in the earth's shadow,  

DLR